Home   Weather   Wermelskirchen   Past weeks

Flag for Germany Past Weather in Wermelskirchen, North Rhine-Westphalia, Germany — Yesterday and Last 2 Weeks

Now
43 °F

Passing clouds.


Feels Like: 41 °F
Forecast: 37 / 45 °F
Wind: 3 mph from East

Location: Koeln / Bonn

Current Time: Dec 8, 2016 at 5:17:12 pm

Latest Report: Dec 8, 2016 at 4:20 pm


Visibility: N/A

Pressure: 30.36 "Hg

Humidity: 71%

Dew Point: 34 °F

Location of WermelskirchenLocation

Past Weather in Wermelskirchen — Graph

°F

Wermelskirchen Temperature Yesterday

Maximum temperature yesterday: 41 °F (at 2:20 pm)
Minimum temperature yesterday: 30 °F (at 12:20 am)
Average temperature yesterday: 35 °F

High & Low Weather Summary for the Past Weeks

 TemperatureHumidityPressure
High61 °F (Nov 24, 1:20 pm)100% (Nov 23, 7:20 pm)30.57 "Hg (Nov 23, 7:20 pm)
Low18 °F (Nov 30, 6:50 am)44% (Nov 25, 3:20 pm)30.04 "Hg (Nov 23, 3:20 pm)
Average37 °F83%30.30 "Hg
* Reported Nov 23 3:20 pm — Dec 8 3:50 pm, Wermelskirchen, Weather by CustomWeather, © 2016

Note: Actual official high and low records may vary slightly from our data, if they occured in-between our weather recording intervals... More about our weather records

Advertising

Wermelskirchen Weather History for the Previous 24 Hours

Scroll right to see more
 ConditionsComfort  
Time TempWeatherWind HumidityBarometerVisibility
3:50 pm
Thu, Dec 8
43 °FSunny.8 mph71%30.36 "Hg10 mi
3:20 pm45 °FSunny.8 mph66%30.36 "Hg10 mi
2:50 pm45 °FSunny.7 mph61%30.39 "Hg10 mi
2:20 pm45 °FSunny.8 mph66%30.39 "Hg10 mi
1:50 pm45 °FPassing clouds.9 mph61%30.39 "HgN/A
1:20 pm43 °FSunny.12 mph66%30.39 "Hg10 mi
12:50 pm43 °FSunny.9 mph66%30.42 "Hg10 mi
12:20 pm43 °FPassing clouds.7 mph66%30.42 "HgN/A
11:50 am43 °FPassing clouds.7 mph66%30.42 "HgN/A
11:20 am43 °FPassing clouds.8 mph61%30.42 "HgN/A
10:50 am43 °FPassing clouds.10 mph61%30.45 "HgN/A
10:20 am41 °FSunny.7 mph66%30.45 "Hg10 mi
9:50 am39 °FPassing clouds.8 mph70%30.45 "HgN/A
9:20 am37 °FPassing clouds.8 mph75%30.45 "HgN/A
8:50 am37 °FSunny.10 mph75%30.45 "Hg10 mi
8:20 am37 °FPassing clouds.6 mph75%30.45 "HgN/A
7:50 am37 °FClear.9 mph75%30.45 "Hg10 mi
7:20 am37 °FPassing clouds.6 mph75%30.45 "HgN/A
6:50 am37 °FClear.9 mph75%30.42 "Hg10 mi
6:20 am37 °FPassing clouds.6 mph81%30.42 "HgN/A
5:50 am37 °FClear.8 mph81%30.42 "Hg10 mi
5:20 am37 °FPassing clouds.7 mph81%30.42 "HgN/A
4:50 am36 °FPassing clouds.5 mph87%30.45 "HgN/A
4:20 am36 °FPassing clouds.7 mph87%30.45 "HgN/A
3:20 am37 °FPassing clouds.6 mph81%30.45 "HgN/A
2:20 am37 °FPassing clouds.7 mph81%30.48 "HgN/A
1:50 am37 °FClear.9 mph81%30.45 "Hg10 mi
1:20 am37 °FClear.7 mph81%30.48 "Hg10 mi
12:50 am39 °FPassing clouds.9 mph75%30.48 "HgN/A
12:20 am37 °FClear.7 mph81%30.48 "Hg10 mi
11:50 pm
Wed, Dec 7
37 °FClear.8 mph81%30.48 "Hg10 mi
11:20 pm39 °FClear.7 mph75%30.48 "Hg10 mi
10:50 pm39 °FClear.6 mph75%30.48 "Hg10 mi
10:20 pm39 °FPassing clouds.5 mph75%30.48 "HgN/A
9:50 pm39 °FPassing clouds.7 mph81%30.48 "HgN/A
9:20 pm39 °FClear.7 mph81%30.48 "Hg10 mi
8:50 pm39 °FClear.7 mph81%30.48 "Hg10 mi
8:20 pm39 °FPassing clouds.6 mph81%30.48 "HgN/A
7:50 pm39 °FPassing clouds.7 mph81%30.48 "HgN/A
7:20 pm39 °FPassing clouds.6 mph81%30.48 "HgN/A
6:50 pm39 °FPassing clouds.7 mph81%30.48 "HgN/A
6:20 pm39 °FPassing clouds.5 mph81%30.45 "HgN/A
5:50 pm39 °FPassing clouds.6 mph81%30.45 "HgN/A
5:20 pm39 °FClear.7 mph81%30.45 "Hg10 mi
Weather by CustomWeather, © 2016

See weather overviewHow to use our weather pages